Theta_e
311 311 311 310 310 310 310 310 309 309 308 308 307 307 307 306 306 306 306 305 305 305 305 305 305 305 305 304 304 304 305 305 305 305 305 306 306 306 306 305 306 306 306 306 306 306 306 305 305 305 304 304 304 304 304 304 303 303 304 304 304 304 304 305 305 305 305 305 306 306 306 307 308 309 309 310 311 312 315 317 316 315 319 325 328
311 310 310 310 310 309 309 309 308 307 307 307 306 306 306 306 306 305 305 305 305 305 305 305 305 305 304 304 304 304 304 304 304 304 305 305 305 305 305 305 305 305 305 305 305 305 305 305 304 304 304 303 303 303 303 302 302 302 303 303 303 303 303 303 304 304 304 304 304 305 305 306 307 307 308 308 310 312 313 316 317 317 318 321 325
310 310 309 309 309 309 308 308 307 307 306 306 306 306 305 305 305 305 305 304 304 304 304 304 304 305 304 303 303 303 303 303 303 303 304 305 305 305 305 305 305 305 305 305 304 304 304 304 303 303 303 302 302 302 301 301 301 301 301 301 301 302 302 302 302 303 303 303 303 304 304 305 306 306 307 308 309 310 312 315 317 319 320 321 323
310 309 309 309 309 308 308 307 307 306 306 306 306 305 305 305 304 304 304 304 304 304 304 304 304 304 304 303 303 302 302 302 302 302 303 304 304 305 304 305 305 304 304 304 304 304 303 303 303 302 301 301 301 300 300 300 299 300 299 300 300 300 301 301 301 302 302 302 302 303 304 304 305 306 306 307 308 309 311 312 315 318 320 322 324
309 309 309 308 308 307 307 307 306 306 306 305 305 304 304 304 303 303 303 303 303 303 303 304 304 304 303 302 302 301 300 300 300 301 302 303 304 305 304 304 304 304 304 304 303 303 303 302 302 301 301 300 300 299 299 299 298 298 299 299 299 300 300 300 300 301 301 302 302 302 303 304 304 305 305 306 307 308 309 310 312 316 319 321 323
309 309 308 307 307 306 306 306 306 305 305 305 304 304 304 303 303 303 303 303 303 303 303 303 303 303 303 302 301 300 299 298 298 299 300 301 303 304 304 304 304 304 303 303 303 302 302 302 301 300 300 299 299 298 298 298 298 298 298 298 298 299 299 299 300 300 300 301 301 301 302 302 303 304 304 305 306 307 308 309 310 313 317 320 321
308 308 308 307 307 306 305 305 305 305 304 304 303 303 303 302 303 303 303 303 303 303 303 303 303 303 302 301 300 299 298 297 296 297 299 301 303 304 304 304 304 303 303 303 302 302 301 301 300 300 299 299 298 298 298 297 297 297 297 298 298 298 298 298 299 299 299 300 300 300 301 301 302 302 303 304 304 305 307 308 309 311 313 314 316
308 308 307 307 306 305 305 304 304 304 303 303 303 302 302 302 302 303 302 302 302 303 303 303 303 303 302 301 299 298 297 296 295 296 297 299 302 304 303 303 303 303 303 302 301 301 300 300 300 299 298 298 297 297 297 297 297 297 297 297 297 297 297 298 298 298 298 299 299 300 300 300 301 301 302 302 303 304 305 306 307 308 308 309 311
307 307 307 306 305 304 304 304 303 303 303 302 302 302 302 302 302 302 302 302 302 303 303 303 303 303 302 301 299 297 296 295 295 296 297 298 301 303 303 303 303 302 302 301 301 300 300 299 299 299 298 298 297 297 297 296 296 296 296 296 296 296 297 297 298 298 298 298 299 299 299 299 300 300 301 301 302 302 303 303 304 306 307 308 309
307 306 306 305 304 304 303 303 303 302 302 302 302 302 302 302 302 302 302 302 302 302 303 303 303 302 302 300 299 297 295 294 295 296 297 297 299 302 303 303 302 302 301 301 300 300 299 299 299 298 298 297 297 297 297 295 295 295 295 295 296 296 297 297 298 298 298 298 298 299 299 299 299 300 300 300 301 301 301 302 303 304 305 306 308
306 305 305 305 304 303 303 303 302 302 302 301 301 301 301 301 302 302 302 302 302 302 303 303 303 302 301 299 298 297 295 294 295 296 297 298 299 301 302 302 302 301 301 300 300 299 299 299 298 298 298 297 297 297 296 295 295 295 295 296 296 297 297 297 298 297 297 298 298 298 298 299 299 299 299 300 300 300 301 301 302 303 304 305 306
305 305 305 304 303 303 303 302 302 301 301 301 301 301 301 301 301 302 302 302 302 302 302 303 303 303 301 298 297 296 294 294 295 296 297 298 299 300 302 301 301 301 300 300 300 299 299 298 298 298 298 297 297 296 295 295 295 295 296 297 297 297 297 297 297 297 297 297 298 298 298 298 298 298 299 299 299 299 299 300 300 301 302 303 304
305 305 304 304 303 302 302 302 302 301 301 301 301 300 300 301 301 302 302 302 302 302 302 303 303 303 302 299 297 295 294 293 295 296 297 298 299 300 301 301 300 300 300 300 299 299 299 298 298 298 297 297 297 295 295 295 295 295 297 297 297 297 297 297 297 297 297 297 297 297 297 297 297 298 298 298 298 298 298 298 299 299 300 302 303
305 305 304 303 302 302 302 301 301 300 301 301 301 301 301 301 301 301 301 301 302 302 302 302 302 302 302 300 297 295 293 292 294 295 297 298 298 300 301 301 301 300 299 299 299 299 298 298 297 297 297 297 296 294 294 294 294 296 297 297 297 297 297 297 297 297 296 296 296 296 296 296 296 296 296 296 296 296 296 297 297 298 299 300 301
305 304 303 303 302 301 301 301 301 301 301 301 301 301 301 301 301 301 301 301 301 301 301 301 301 301 302 301 298 295 293 292 292 294 296 298 299 299 300 300 300 300 300 299 299 298 298 298 297 297 296 296 295 293 293 293 294 296 297 296 297 297 296 297 297 296 296 296 296 296 296 296 296 296 296 295 295 295 296 296 296 296 297 297 298
304 303 303 302 302 301 301 302 302 301 301 301 301 302 302 301 301 301 301 301 300 300 300 300 300 300 301 301 300 297 293 291 292 293 294 297 299 299 299 299 300 300 299 299 299 299 298 297 297 296 296 295 294 293 293 293 294 296 296 296 296 296 296 296 296 296 295 295 295 295 295 295 295 295 295 295 295 295 295 295 295 295 296 296 297
303 303 303 303 302 302 302 301 301 301 301 301 301 302 302 302 301 301 301 301 301 300 300 300 300 299 299 300 300 298 294 291 292 292 293 296 298 299 298 299 299 299 299 298 298 298 298 297 296 295 295 294 294 293 294 294 294 296 296 296 296 296 296 296 296 295 295 296 296 296 296 296 296 295 295 295 295 295 295 295 295 295 296 296 297
304 304 304 303 302 302 302 301 302 301 301 301 301 302 302 301 301 301 301 301 300 300 300 300 300 299 298 298 299 299 295 292 292 292 292 294 297 299 298 297 298 299 299 298 298 298 297 297 296 295 294 293 293 293 294 294 294 295 296 296 296 296 296 296 296 296 296 296 296 296 296 296 295 295 295 295 295 295 295 295 295 295 296 296 297
304 304 303 302 302 302 301 301 302 302 302 302 302 302 302 302 301 301 301 301 300 300 300 300 300 300 299 297 297 298 297 294 292 292 293 293 295 297 297 297 297 299 299 298 298 298 297 297 297 295 293 293 293 294 294 294 294 295 296 296 296 296 296 295 296 296 296 297 297 296 295 295 295 295 295 294 294 294 294 295 295 296 296 297 298
304 303 303 302 302 302 301 302 302 302 302 302 302 302 302 302 301 301 300 300 300 300 300 300 300 300 300 299 298 297 297 296 294 293 293 293 294 295 297 296 296 297 299 298 297 297 297 297 297 295 293 293 293 293 294 294 294 295 295 296 295 295 295 295 296 296 296 296 296 295 295 295 295 294 294 294 294 294 294 294 295 296 297 298 298
303 302 302 302 302 302 302 302 302 302 302 302 302 302 302 302 301 301 300 300 301 301 301 301 300 300 300 300 299 298 298 297 296 294 293 293 294 295 296 296 295 296 298 298 297 297 297 297 297 295 294 294 294 293 294 294 294 295 295 295 295 295 295 295 296 295 295 295 295 295 295 295 294 294 294 293 293 293 293 293 294 295 297 298 299
302 302 302 302 301 302 302 302 302 302 302 302 302 302 302 302 302 301 301 301 302 301 301 301 300 300 300 300 300 300 299 299 298 295 293 294 294 294 295 295 294 295 297 297 297 297 297 297 296 295 294 294 294 294 294 294 295 295 295 294 295 295 295 295 295 295 295 295 295 294 295 294 294 293 293 293 292 292 292 292 293 294 296 297 300
302 302 301 301 302 302 302 302 302 302 302 302 302 302 302 302 302 302 302 302 302 301 301 301 300 300 300 300 299 300 300 300 299 296 294 294 295 295 295 295 294 295 296 297 296 296 296 296 296 295 295 295 294 294 294 295 295 295 295 295 295 295 295 295 295 295 295 295 294 294 294 294 293 293 293 292 292 292 292 292 294 295 296 297 299
302 302 302 302 302 302 302 302 302 302 302 302 302 302 302 302 302 302 302 302 302 301 301 301 300 300 300 300 299 300 300 299 299 297 295 295 295 295 295 295 295 294 295 296 296 295 296 296 296 295 295 295 294 294 294 295 295 295 295 295 295 295 295 295 295 295 295 295 294 294 294 294 293 293 293 292 292 291 292 293 295 297 299 300 301
302 302 302 302 302 302 302 302 302 303 303 302 302 302 303 303 302 302 302 302 301 301 300 300 300 299 299 300 300 300 299 299 298 297 296 295 295 295 295 295 295 294 295 296 295 294 295 296 295 295 295 295 295 294 294 294 295 295 295 295 295 295 295 294 295 295 295 294 294 294 294 294 294 293 293 292 292 292 292 294 297 300 303 305 305
302 302 302 302 302 301 302 302 302 302 302 302 302 302 302 303 302 302 302 302 301 301 300 299 299 299 299 299 299 299 299 298 297 296 296 295 295 295 295 295 295 294 295 295 295 295 295 296 295 295 295 295 295 295 294 294 295 295 295 295 295 295 295 294 294 295 295 294 294 294 294 294 294 294 293 292 292 292 292 293 296 299 304 307 307
302 302 302 302 301 302 302 302 302 302 303 303 302 302 302 302 302 302 302 302 302 302 301 299 299 299 299 298 298 298 298 297 296 295 295 295 294 294 295 295 295 295 295 295 294 295 295 296 296 295 295 295 295 295 294 294 294 294 295 295 295 295 294 294 294 294 294 294 294 294 294 294 294 294 293 293 292 292 292 292 294 297 301 304 304
302 302 302 302 302 302 302 302 302 302 302 302 302 301 301 302 302 302 302 302 302 302 301 300 299 299 299 298 297 298 297 296 295 293 293 293 293 293 294 294 294 294 294 294 294 294 295 296 296 296 295 295 295 295 294 294 294 294 294 295 295 294 294 294 294 294 294 294 295 294 294 294 294 294 294 293 292 292 292 292 293 294 296 299 301
302 302 302 302 302 303 302 302 302 302 302 302 302 301 301 302 302 301 299 298 299 301 301 299 298 299 299 297 296 296 297 295 293 291 291 291 291 291 292 292 293 293 293 293 293 294 296 296 296 296 296 295 295 295 294 293 293 293 293 294 295 294 294 294 294 294 294 294 295 295 294 294 295 294 294 293 292 292 292 292 292 293 294 295 297
303 303 302 302 303 303 302 301 302 303 302 302 303 302 300 301 301 300 297 294 294 296 296 295 295 296 298 298 295 294 294 293 292 291 291 291 291 291 291 292 293 293 293 293 294 295 296 296 296 296 296 295 295 294 294 293 293 292 292 293 294 294 294 294 294 294 294 294 295 295 294 295 295 295 294 293 292 292 292 292 292 293 293 293 294
303 303 303 302 302 303 302 301 302 303 302 302 302 300 298 298 298 297 295 294 293 294 294 294 293 293 294 296 296 294 293 292 291 291 291 291 291 291 292 293 294 294 294 294 294 295 296 296 296 296 296 295 295 294 294 293 292 292 292 292 293 294 294 294 294 294 294 295 295 295 295 295 295 295 295 294 293 292 292 292 292 292 292 292 293
303 303 303 303 302 302 303 302 302 303 303 302 302 300 298 297 296 295 294 294 294 294 294 294 294 293 292 293 294 295 293 292 292 292 292 291 291 292 293 294 295 295 295 294 295 296 296 296 296 296 296 295 295 294 294 293 293 292 291 291 292 294 294 294 294 294 294 294 294 294 295 295 295 296 295 294 293 293 292 292 292 292 292 292 292
304 303 304 303 301 302 303 303 302 302 303 302 302 301 300 300 299 296 295 294 294 295 294 294 295 294 293 293 293 293 293 292 292 292 292 291 292 294 294 295 295 295 295 295 295 296 296 296 296 296 296 295 295 294 294 294 293 292 291 291 292 293 293 294 294 294 294 294 294 294 295 295 296 296 296 295 294 293 293 292 292 292 292 292 292
304 303 303 303 301 301 303 303 302 302 302 301 301 301 302 302 301 300 298 297 296 295 295 295 295 294 294 294 293 292 292 292 292 292 292 292 293 295 295 296 296 295 296 296 296 296 296 296 296 295 295 295 294 294 294 294 293 292 291 290 291 292 292 293 294 294 294 295 294 294 295 295 295 296 296 296 295 294 293 292 292 292 292 292 292
304 303 303 303 302 301 303 303 302 302 302 301 300 301 301 302 302 301 301 300 299 299 297 296 296 295 295 295 294 293 293 292 292 293 293 293 294 295 296 296 296 296 296 296 296 296 296 296 295 295 295 294 294 294 294 293 293 293 291 290 290 290 291 292 293 293 294 294 294 294 294 295 295 296 296 296 295 295 294 293 292 292 292 292 292
304 303 303 303 302 301 302 303 302 302 302 301 301 300 301 301 300 300 300 300 300 300 301 299 298 297 296 296 297 296 294 293 293 294 294 294 294 295 296 297 297 296 296 296 296 296 296 296 295 295 295 294 294 294 294 293 293 293 292 291 290 289 289 290 291 292 293 294 294 294 294 295 295 295 296 296 296 296 295 294 293 293 292 292 292
304 304 303 302 303 302 302 302 302 302 301 301 301 301 301 301 300 300 301 300 300 300 300 301 300 298 297 297 298 297 295 294 294 295 295 295 295 295 296 297 297 296 296 296 296 295 296 296 295 295 295 295 295 294 294 293 293 292 292 291 291 290 289 289 290 291 292 294 294 294 294 294 294 295 296 296 296 296 296 295 294 294 293 293 293
304 304 303 302 302 302 302 302 302 301 300 300 301 301 301 300 300 300 300 301 301 300 299 299 300 299 298 298 298 298 296 296 296 296 296 296 296 296 297 297 297 296 296 296 296 295 295 295 295 295 295 295 295 294 294 293 293 292 292 291 291 290 290 289 289 290 291 293 294 294 294 294 294 294 295 296 296 296 296 296 295 295 294 294 294
303 303 301 300 301 302 302 301 301 301 300 300 301 301 300 300 300 300 300 300 300 299 299 299 300 299 300 300 299 298 298 297 297 297 297 297 297 297 297 297 297 297 296 296 296 296 295 295 295 295 295 295 295 294 294 293 293 292 292 292 291 291 290 290 289 289 289 291 293 294 294 294 294 294 295 295 296 296 296 296 296 296 295 295 294
303 302 300 299 300 301 301 301 301 300 300 300 300 300 300 300 300 300 300 300 300 300 300 300 300 299 299 300 299 298 297 297 297 297 298 297 297 297 297 297 297 297 297 296 296 296 295 295 295 294 294 294 294 294 294 294 293 292 292 292 291 291 291 290 289 289 288 290 292 293 293 294 294 294 294 295 295 296 296 296 296 296 296 295 295
302 301 300 299 299 300 301 301 301 300 299 299 299 300 300 300 299 299 299 299 300 300 300 300 300 299 299 299 298 297 295 294 296 297 298 298 297 297 297 297 297 297 297 297 296 296 296 295 294 294 294 294 294 294 294 294 293 293 293 292 292 291 291 290 290 289 289 289 291 293 293 293 294 294 294 294 295 296 296 296 296 296 296 296 296
302 301 300 299 299 300 300 300 300 300 299 299 299 299 300 300 299 299 299 299 299 299 299 299 299 299 299 298 297 295 294 294 295 297 297 297 297 298 297 297 297 297 297 297 297 296 296 295 294 294 294 294 294 294 294 294 294 293 293 292 292 292 291 290 290 290 289 289 290 292 293 293 293 294 294 294 294 295 295 296 296 296 296 296 296
301 301 301 300 299 299 299 300 300 300 300 300 299 299 299 300 300 300 299 299 299 298 298 299 299 299 299 298 297 296 295 295 295 296 297 298 298 298 297 297 297 297 297 297 296 296 296 295 295 294 294 294 294 294 294 294 294 294 293 293 292 292 291 291 290 290 290 289 290 291 291 292 293 293 293 294 294 294 295 295 296 296 296 296 296
300 301 301 300 299 299 299 299 300 300 300 300 300 299 299 299 299 300 300 299 299 298 298 298 298 299 299 298 297 297 296 296 296 297 298 298 298 297 297 297 297 297 297 296 296 296 296 295 295 294 294 294 293 293 294 294 294 294 294 293 292 292 291 291 290 290 290 289 290 290 290 291 292 292 293 293 294 294 294 294 295 295 296 295 295
300 300 300 300 299 298 299 299 299 299 299 299 299 299 299 299 299 299 299 299 299 299 298 298 298 298 299 299 298 298 298 298 298 298 298 298 297 297 297 297 297 297 297 296 296 296 296 295 295 294 294 294 294 294 294 294 295 294 294 293 293 292 292 291 291 290 290 289 290 290 290 290 291 292 292 292 293 293 293 294 294 295 295 295 295
300 300 300 300 299 299 299 299 299 299 299 299 299 299 299 299 299 299 299 299 299 299 299 299 298 298 298 298 298 298 299 299 298 298 298 297 297 297 297 297 297 297 297 296 296 296 296 295 295 295 295 294 294 294 294 294 295 294 294 294 293 292 292 291 291 291 290 289 290 290 290 290 290 291 291 291 292 293 293 293 293 294 294 295 295
301 300 300 300 300 300 299 300 300 300 300 300 300 300 300 300 299 299 299 299 299 299 299 299 299 299 299 299 299 298 298 298 298 298 298 297 297 297 297 297 297 296 296 296 296 295 295 295 295 295 295 294 294 294 294 294 295 294 294 294 293 292 292 291 291 291 290 290 290 290 290 290 290 290 290 291 291 292 292 293 293 293 293 294 294
301 301 300 300 300 300 300 300 300 300 300 300 300 300 300 300 300 300 300 299 299 299 299 299 299 299 299 299 299 299 299 299 298 298 298 298 298 297 297 297 297 296 296 296 295 295 295 295 295 295 295 294 294 294 294 294 295 295 295 294 293 292 292 292 292 291 291 290 290 291 291 290 290 290 290 290 290 291 292 292 293 293 293 293 293
302 301 301 301 301 301 301 301 300 300 300 301 301 301 300 300 300 300 300 300 300 299 299 299 299 299 299 299 299 299 299 299 299 299 298 298 298 298 297 297 297 297 296 296 296 295 295 295 295 295 295 295 294 294 294 294 294 294 295 294 293 292 292 292 292 292 292 291 290 291 291 291 290 290 290 290 290 290 291 291 292 292 293 293 293
302 302 302 302 302 301 301 301 301 301 301 301 301 301 301 300 300 300 300 300 300 300 300 300 299 299 299 299 299 299 299 299 299 299 299 299 298 298 298 298 297 297 297 296 296 295 295 295 295 295 295 295 295 295 294 294 295 295 295 294 293 292 292 292 292 292 292 291 291 291 291 291 291 290 290 290 290 290 290 291 291 292 293 293 293
301 301 302 302 302 301 301 301 301 301 301 301 301 301 300 300 300 300 300 300 300 300 300 300 300 300 300 300 299 299 299 299 299 299 299 299 299 298 298 298 298 297 297 297 296 296 295 295 295 295 295 295 295 295 295 295 295 295 295 294 293 292 292 292 292 292 292 292 291 291 291 292 292 291 291 290 290 289 290 290 290 291 292 293 293
Wind_Speed
12 12 12 13 14 14 14 13 13 14 13 13 13 12 12 11 10 10 9 9 9 9 9 9 9 9 10 12 12 12 13 12 12 12 11 12 11 11 12 13 13 12 13 14 14 13 14 14 14 15 15 15 16 16 16 17 18 17 17 17 18 17 18 20 16 18 25 26 25 27 28 29 29 27 28 31 31 29 26 27 30 31 30 29 28
12 13 14 14 14 14 13 13 14 14 13 13 13 12 11 11 10 9 9 9 9 9 9 9 9 10 11 13 13 13 13 13 12 12 12 12 12 11 12 12 13 13 13 14 14 14 14 14 14 15 16 16 17 17 17 18 19 19 19 19 19 19 19 21 20 19 24 28 27 27 28 28 28 28 29 30 31 30 28 27 27 27 28 29 28
13 14 14 14 14 14 14 14 14 14 13 13 12 12 11 10 9 9 9 9 9 9 9 10 10 11 12 13 14 14 14 13 13 13 12 12 12 12 12 12 12 13 13 13 13 14 14 14 15 16 17 17 17 17 18 19 20 20 20 20 20 21 20 21 22 22 25 29 29 27 28 28 28 29 29 29 30 30 29 27 26 25 23 25 27
14 15 15 15 14 14 14 14 14 13 13 13 12 12 11 10 10 9 9 9 9 9 9 10 11 12 13 14 15 15 15 14 14 13 13 12 12 12 12 12 12 12 13 13 14 14 14 14 15 17 17 17 17 18 18 20 21 20 21 21 21 22 22 22 23 24 25 28 30 28 28 28 28 29 29 29 28 28 28 27 26 25 24 23 25
16 15 15 15 15 15 15 14 14 14 13 13 12 11 11 10 10 10 9 9 9 9 10 10 12 13 14 14 15 15 15 15 15 14 13 12 11 11 12 12 12 12 13 13 14 14 14 15 16 17 18 17 18 19 20 21 22 21 22 23 22 23 24 24 24 25 26 27 29 29 28 27 28 28 27 28 29 28 28 28 28 27 25 24 24
17 16 15 16 16 15 15 14 14 13 13 12 12 11 11 10 10 10 9 9 9 10 10 11 12 13 14 14 14 15 15 16 16 15 14 13 11 10 11 12 11 12 13 13 13 14 14 15 16 17 17 18 20 21 22 23 23 24 25 25 24 25 25 25 25 25 26 26 27 28 28 27 27 27 26 27 29 29 29 29 28 26 23 23 23
17 16 16 16 16 15 15 14 13 13 12 12 11 11 10 10 10 9 9 10 10 10 11 11 12 12 13 14 14 15 16 17 17 16 14 13 11 10 10 11 11 11 12 13 13 14 15 15 16 17 18 19 21 23 23 24 24 26 27 26 26 26 26 26 25 25 25 25 25 26 27 27 27 27 28 28 28 27 27 27 26 25 25 26 25
18 17 16 16 16 15 14 14 13 13 12 12 11 11 10 10 10 9 10 10 10 10 11 11 11 12 12 13 14 15 16 17 18 17 15 12 11 10 10 10 11 11 12 13 13 14 15 16 16 17 17 18 22 23 22 23 24 26 27 27 27 28 27 26 26 26 25 25 25 25 26 27 26 27 28 28 26 25 24 26 27 27 28 29 28
18 17 16 16 16 15 15 14 14 13 13 12 11 11 10 10 10 10 10 10 10 11 11 11 11 11 11 12 14 16 17 17 16 15 15 13 11 9 10 10 10 11 12 12 13 14 16 16 16 17 16 18 23 22 21 23 26 27 28 28 27 27 26 27 28 28 27 26 26 26 26 26 26 27 27 26 27 27 27 28 29 28 29 30 30
18 17 17 16 16 15 15 14 14 13 13 12 12 11 10 10 10 10 11 11 11 11 10 10 11 11 11 12 13 16 19 17 13 12 13 13 11 9 9 10 10 11 12 12 13 14 16 16 17 17 17 20 23 23 23 27 28 27 27 26 26 26 27 27 27 28 28 27 26 26 26 26 27 28 28 28 29 30 29 28 28 29 29 27 27
18 17 17 17 16 16 15 15 14 14 13 12 12 11 10 10 10 10 10 11 11 10 10 10 10 10 12 13 14 16 19 17 13 12 12 12 11 9 8 10 10 10 12 12 12 14 15 16 17 17 18 22 24 23 26 29 28 27 27 25 26 26 26 26 26 28 28 28 28 28 27 28 30 30 30 31 31 30 29 29 28 29 27 22 20
18 18 17 17 16 16 15 15 15 14 13 13 12 11 11 10 10 10 10 11 10 10 10 9 9 9 11 13 15 17 20 18 13 12 12 11 11 10 9 9 10 10 12 12 12 14 15 16 17 17 19 23 24 24 27 29 28 27 27 26 26 25 25 26 27 28 29 29 29 28 27 29 32 32 32 32 31 32 31 31 30 29 29 26 23
18 18 17 17 16 16 15 15 14 14 13 12 12 12 11 9 9 9 10 10 10 10 9 9 9 8 9 12 15 17 21 20 14 11 11 11 10 10 9 9 10 11 12 12 13 14 15 16 18 18 20 23 24 25 28 29 28 27 26 25 26 26 27 28 27 27 28 28 29 29 29 30 33 33 34 34 33 33 33 32 31 30 30 30 29
18 18 17 17 17 16 15 15 14 14 13 12 12 12 10 9 8 8 9 9 9 9 9 9 9 9 8 10 13 16 20 21 16 12 10 10 11 11 9 9 9 11 11 13 14 15 16 17 17 18 20 22 24 27 30 30 28 26 25 25 26 28 28 27 27 27 28 27 29 31 31 33 35 36 38 38 36 35 34 33 33 32 33 34 35
18 18 17 17 16 16 16 15 14 14 13 12 12 11 9 8 8 8 8 8 8 8 9 10 9 9 8 9 11 14 18 20 19 15 12 10 12 12 10 9 10 10 11 12 13 14 15 15 16 19 20 21 24 29 33 33 29 25 25 27 28 30 28 27 28 29 29 28 29 32 33 35 38 41 43 44 42 40 40 41 39 37 37 38 38
18 18 17 17 17 16 16 15 14 13 13 12 11 10 9 8 8 7 7 7 8 8 9 10 10 10 9 8 9 12 16 19 20 20 15 11 13 14 12 11 11 11 11 13 13 13 15 15 16 19 19 21 25 29 32 33 29 25 26 29 31 31 30 30 31 31 31 31 33 36 38 40 43 45 46 46 45 44 44 43 41 37 34 32 32
18 18 17 17 17 16 16 15 14 13 13 12 11 9 8 7 7 7 7 7 7 8 8 9 10 11 10 8 8 10 15 19 20 22 20 15 13 14 13 12 12 11 12 14 14 13 15 15 15 18 20 22 27 29 31 33 30 25 27 30 32 33 33 34 33 31 31 34 36 37 39 41 43 44 44 43 44 43 40 37 36 32 28 22 20
18 18 17 17 17 16 16 15 14 13 12 12 10 9 8 7 7 6 7 7 7 7 8 8 8 9 11 11 9 8 12 18 20 21 21 19 16 15 15 14 13 12 12 14 14 14 15 16 15 18 22 25 28 29 30 31 30 26 27 31 32 33 35 36 34 33 35 37 37 36 37 38 39 41 41 40 41 40 38 36 34 31 27 22 19
19 18 18 18 17 16 16 15 14 13 12 11 10 8 7 7 6 6 6 6 6 6 7 7 7 7 8 10 10 9 9 14 19 19 20 21 20 16 15 15 14 13 14 15 15 14 16 16 15 19 25 28 29 29 29 30 29 26 26 31 32 33 36 36 35 36 38 39 38 38 38 38 38 40 41 39 38 37 36 36 34 31 29 27 25
19 19 18 18 17 16 15 15 14 13 12 11 9 8 7 7 6 6 6 6 6 6 6 6 6 6 5 6 8 9 8 11 16 19 19 21 22 19 15 16 16 15 15 15 15 15 16 16 15 20 27 29 30 31 30 29 27 25 27 30 30 31 34 34 35 39 39 37 38 40 39 39 40 41 41 39 37 34 33 32 31 32 31 28 28
19 19 18 18 17 16 16 15 14 13 12 10 9 8 7 7 6 6 6 6 6 5 4 4 4 4 4 3 3 4 6 9 13 18 18 19 21 20 16 15 17 16 16 15 15 15 16 16 16 22 29 31 30 32 32 29 25 24 27 29 30 30 30 31 37 41 38 36 39 40 39 41 42 40 40 41 40 37 34 31 30 33 33 31 29
20 19 19 18 17 16 16 15 14 12 11 10 9 8 7 6 6 6 6 6 5 4 4 3 3 3 2 3 2 1 4 6 10 16 18 17 19 19 17 17 19 18 15 15 16 16 16 17 18 23 30 31 31 33 32 28 26 26 28 31 33 32 29 31 39 42 39 38 39 39 41 44 43 43 45 46 47 45 40 34 31 33 34 34 33
21 20 19 18 17 17 16 15 13 12 11 10 9 8 7 6 5 5 5 4 4 3 3 3 3 3 2 3 4 3 3 4 8 14 18 17 17 18 17 18 20 19 16 15 16 17 16 18 21 26 30 30 30 32 31 26 26 29 30 32 35 33 30 34 39 38 37 39 38 40 45 46 44 46 47 49 51 49 42 36 33 33 33 35 37
21 20 19 18 17 17 16 14 13 11 11 10 9 8 7 6 5 5 3 3 3 3 3 3 3 4 4 3 4 5 4 4 8 14 17 17 17 17 16 16 19 20 18 15 15 17 18 19 23 27 29 28 28 30 29 25 26 30 31 32 34 32 32 36 37 34 35 37 37 41 46 46 44 45 47 49 51 48 41 35 30 27 28 31 34
21 20 19 18 18 16 16 14 13 12 11 10 9 8 7 6 5 5 4 3 3 2 2 3 3 3 4 4 4 5 5 6 8 12 15 16 15 16 16 16 18 21 18 15 16 18 18 20 22 24 26 27 26 26 25 25 27 29 30 31 32 31 33 36 36 34 34 35 36 39 43 44 44 45 48 52 53 50 47 41 34 26 18 22 31
21 20 19 18 17 17 16 14 13 12 11 9 9 8 7 6 5 4 4 3 3 2 2 3 3 3 4 5 5 4 5 6 9 11 13 14 15 16 17 16 18 19 18 15 17 18 18 19 21 21 23 25 24 23 24 25 27 27 28 30 31 31 33 35 35 34 34 35 36 39 42 44 44 45 50 56 56 54 52 46 37 35 24 2 17
20 20 19 18 17 16 15 14 13 12 11 9 8 7 6 6 5 4 4 3 2 2 2 3 3 4 4 5 5 5 5 7 9 11 13 14 15 16 16 16 18 18 17 16 18 19 19 20 20 20 22 24 23 22 23 24 25 25 27 29 30 32 33 35 35 34 34 36 37 39 43 44 44 45 51 57 55 53 54 49 39 37 35 21 14
20 20 19 18 17 16 15 14 14 12 11 10 9 7 6 6 5 4 3 3 2 2 3 3 3 4 4 4 5 5 5 7 10 12 13 15 15 16 16 16 17 18 17 17 20 22 20 19 18 19 21 22 22 23 24 24 24 25 26 27 30 32 33 35 35 34 34 37 39 40 43 44 43 44 48 53 53 51 52 52 43 38 37 31 23
20 19 19 17 16 16 15 15 14 12 11 10 8 7 6 4 5 7 5 3 2 3 4 4 3 3 4 4 5 5 6 7 9 11 12 13 14 15 15 15 16 17 17 18 21 22 19 17 18 19 20 21 22 23 24 25 25 25 25 26 29 32 32 34 35 35 36 38 39 40 42 42 42 42 44 48 50 48 49 51 47 42 40 35 28
20 19 18 17 16 16 15 14 13 12 12 11 9 8 6 4 6 8 5 3 4 4 3 3 3 2 2 3 4 4 5 6 8 10 11 12 13 13 12 13 15 16 16 18 20 19 16 16 18 18 19 21 22 23 24 25 25 26 26 26 28 31 32 33 35 36 37 38 38 39 41 41 40 41 41 42 45 46 47 47 44 42 41 37 30
19 19 18 17 17 16 15 14 13 12 12 12 10 10 9 7 6 5 3 3 4 3 2 2 2 2 2 2 2 4 5 6 7 9 10 12 12 12 11 12 14 15 17 18 19 17 15 16 17 18 19 20 21 22 24 25 25 26 26 26 27 29 31 33 35 36 36 37 38 39 41 41 41 40 38 39 41 43 45 46 45 41 38 36 32
19 18 17 16 17 16 14 14 13 12 12 12 11 12 12 10 9 7 6 5 4 3 2 1 0 0 1 1 1 2 4 6 7 9 10 12 12 11 11 12 13 14 16 17 17 14 14 16 17 18 19 19 20 22 23 24 25 26 26 26 26 27 29 33 35 35 35 36 38 38 39 40 42 40 38 38 38 39 40 44 44 39 35 35 34
18 18 17 16 17 16 13 13 14 12 12 12 11 12 12 12 12 11 10 8 7 6 5 4 3 1 1 1 0 2 4 5 7 8 10 12 11 10 11 13 12 12 13 14 13 13 14 15 16 17 18 19 20 21 22 23 24 25 26 26 26 26 29 32 33 34 35 36 38 38 37 39 40 39 37 37 36 35 35 39 40 37 34 34 34
17 17 17 16 17 16 14 13 13 12 11 12 11 10 10 10 11 12 13 13 12 11 10 9 6 3 1 2 3 3 4 5 7 8 10 12 11 10 12 14 13 11 11 10 11 14 14 15 16 17 18 19 20 20 21 22 23 24 25 26 26 26 28 30 32 33 34 34 37 37 36 37 39 38 36 36 35 33 32 35 38 37 34 33 33
17 17 17 17 17 16 14 13 13 12 12 11 11 10 9 8 8 8 10 11 12 13 14 15 12 6 2 2 3 4 5 6 7 7 9 11 12 12 14 14 12 12 11 9 11 14 14 14 16 17 17 18 19 20 20 21 22 23 24 26 26 27 28 29 30 32 32 32 35 38 36 35 38 37 35 35 34 33 32 32 34 36 35 32 33
18 17 17 16 15 15 14 13 12 12 12 11 11 10 9 8 8 7 7 7 7 8 10 14 14 10 5 4 4 4 5 6 7 6 7 9 11 13 15 13 11 11 11 11 12 13 13 14 15 16 16 17 19 19 20 21 21 22 23 25 25 26 28 28 29 31 31 30 33 37 36 34 36 37 36 34 34 34 35 33 32 34 35 34 33
18 17 18 17 15 14 14 13 12 12 11 11 10 10 9 9 9 8 7 7 7 5 5 8 12 12 11 10 9 6 5 6 7 7 7 8 9 11 13 11 10 11 11 11 12 13 13 13 14 15 16 17 18 18 19 20 21 21 22 24 24 25 28 28 28 30 30 29 31 34 35 34 35 35 35 34 33 34 36 36 33 31 33 34 32
17 16 18 18 16 13 13 13 12 11 11 11 10 10 10 9 9 8 8 7 7 6 6 6 7 10 12 13 12 8 6 7 9 10 10 9 9 10 10 9 8 9 10 10 11 12 12 13 13 14 15 16 17 18 18 19 20 21 22 23 23 25 27 27 28 30 29 28 29 32 32 33 33 33 33 33 32 31 34 36 34 31 31 32 30
17 15 18 20 17 13 13 13 12 12 12 12 10 10 10 9 9 9 9 8 7 7 8 8 7 8 8 9 10 10 8 9 11 11 9 8 7 8 8 8 8 8 9 10 10 10 11 12 13 13 14 15 16 17 17 18 19 20 21 22 23 24 25 26 27 28 28 27 27 29 30 31 31 31 32 32 32 31 30 32 33 32 30 30 30
16 15 19 21 17 13 12 13 12 12 13 12 11 10 10 10 9 9 8 9 8 8 8 8 8 8 7 6 7 7 7 8 9 8 7 6 7 7 8 8 8 8 8 9 9 9 10 11 12 12 13 14 15 16 16 17 18 19 20 21 22 23 24 24 25 26 27 27 26 27 28 29 29 29 30 30 31 31 29 29 30 31 30 29 28
16 16 20 21 17 13 12 12 12 12 13 12 12 11 11 10 10 10 9 9 9 8 8 9 9 7 7 7 7 6 7 9 10 9 8 7 7 8 8 8 8 8 8 8 8 9 9 10 11 12 12 13 14 15 15 16 17 18 18 19 21 22 23 23 24 25 26 26 26 26 27 27 27 28 28 28 29 30 29 27 27 28 29 29 27
16 16 20 20 17 14 13 12 12 12 12 12 12 11 11 11 11 11 11 10 9 9 9 10 9 8 8 10 9 8 8 9 10 10 9 9 8 8 8 8 8 8 8 8 8 8 9 9 10 11 12 13 14 14 15 15 15 16 17 18 19 21 22 23 23 24 25 25 24 25 27 27 25 26 27 27 27 27 27 27 26 25 26 27 26
17 16 17 19 18 16 14 13 13 12 12 13 12 12 11 11 11 11 11 11 11 10 10 10 10 9 10 11 10 8 8 9 11 11 10 10 9 9 8 9 9 8 7 8 8 8 8 9 10 10 11 12 13 13 14 14 14 15 16 16 17 19 21 22 23 24 24 24 24 24 25 25 24 24 25 25 25 25 25 25 25 24 24 24 23
16 15 16 17 18 17 15 14 13 13 12 12 12 12 12 12 12 12 12 11 11 12 11 11 11 10 9 11 11 9 9 10 11 11 11 10 10 9 10 10 9 8 8 8 8 8 8 9 9 10 10 11 12 13 13 13 13 13 14 14 15 17 19 21 22 23 24 24 23 22 23 23 22 22 23 23 23 23 23 23 23 23 23 23 23
16 15 15 16 17 17 16 14 13 13 13 12 12 12 13 13 13 13 12 12 12 12 12 12 12 11 10 10 11 11 11 11 11 11 11 10 10 11 10 10 9 9 9 9 9 9 9 9 9 10 11 11 12 12 12 13 12 12 12 12 12 14 17 20 21 21 23 23 21 20 22 22 20 20 22 22 20 20 21 21 21 21 21 22 23
16 15 15 16 16 17 16 15 14 13 13 13 13 13 13 14 14 14 14 13 13 12 12 13 13 13 13 13 12 12 12 11 11 11 11 11 11 11 11 10 10 10 10 10 10 10 10 10 11 11 11 11 12 12 12 12 12 11 11 10 9 10 14 19 20 20 21 22 20 19 21 21 19 19 21 21 19 19 20 20 20 19 18 18 19
16 15 15 16 16 16 16 15 15 15 14 14 14 14 14 14 14 14 14 14 14 13 13 13 13 14 14 14 14 14 13 13 12 12 12 12 12 12 12 11 11 11 11 11 11 11 11 11 11 11 12 12 12 12 12 12 11 11 11 9 7 9 15 19 19 18 20 21 19 17 19 20 18 18 19 19 18 18 19 19 19 17 15 15 15
15 15 15 15 15 15 15 15 15 15 15 15 14 14 14 14 14 14 14 14 15 15 15 15 15 15 15 15 14 14 14 13 13 13 13 13 13 13 13 13 12 12 12 12 12 12 12 12 12 12 12 13 13 13 12 12 11 11 10 9 9 12 17 18 17 17 19 20 18 16 17 18 18 17 18 18 18 17 16 17 19 17 14 13 13
15 15 15 15 15 15 15 15 15 15 15 15 15 15 15 15 15 15 15 15 15 15 15 16 16 16 16 16 16 15 15 15 14 14 14 14 14 13 13 13 13 13 14 13 13 13 13 13 14 14 14 13 13 13 12 12 12 11 10 9 11 15 17 16 15 16 17 18 16 14 14 16 17 17 16 17 17 16 15 16 18 18 14 12 12
15 14 15 15 16 15 15 15 15 16 16 16 16 16 16 17 17 17 17 17 16 16 16 16 16 16 16 16 16 16 16 15 15 14 15 16 16 15 15 15 15 14 15 15 15 14 14 14 15 15 15 15 15 14 13 13 12 12 11 12 15 17 17 15 15 15 15 16 15 13 13 14 16 16 15 15 15 16 15 15 16 17 14 11 10
16 15 15 15 15 16 16 16 16 16 16 16 16 16 16 17 17 17 18 18 18 17 17 16 16 16 16 16 16 16 16 16 16 16 17 17 17 17 17 17 17 16 16 16 16 16 16 16 15 15 16 16 16 15 14 13 13 13 14 15 17 18 17 15 15 14 14 14 14 13 11 13 14 14 14 14 14 15 15 14 15 15 14 11 10
Wind_Direction
110 108 108 107 106 105 100 96 94 92 91 89 88 87 84 84 83 81 80 74 71 69 64 62 58 55 53 48 44 40 35 31 27 26 24 23 22 18 16 16 16 14 12 13 15 14 11 11 12 9 3 1 359 357 356 353 348 343 339 336 331 330 326 319 312 307 308 310 310 309 310 313 312 312 314 313 312 313 313 308 304 300 292 279 265
113 111 111 110 108 104 99 96 95 93 92 90 88 87 84 83 82 80 78 72 69 67 63 60 59 57 54 48 44 39 34 30 25 23 22 20 20 18 15 14 14 13 12 14 14 13 11 9 10 9 4 3 1 359 357 353 349 343 341 339 332 330 329 321 315 310 309 311 312 311 311 312 311 311 313 312 311 310 308 305 304 301 294 286 277
117 115 115 113 109 105 101 99 98 95 93 91 88 86 84 82 80 78 77 73 68 65 63 61 59 56 52 48 43 36 32 28 24 22 19 17 17 17 15 13 13 13 12 13 12 11 11 9 9 9 7 3 360 357 354 350 347 343 339 337 332 328 327 323 318 313 310 311 311 312 312 312 310 310 310 309 309 308 305 302 300 297 293 286 282
122 120 118 114 109 106 103 101 99 95 92 90 88 87 85 82 79 76 75 73 69 65 63 60 58 55 51 47 41 35 30 25 21 19 15 13 13 12 13 12 13 13 12 12 13 11 11 10 10 8 5 3 359 355 351 347 344 341 336 333 330 326 324 321 317 313 310 310 310 311 311 310 309 309 310 310 308 307 305 303 298 295 293 288 282
123 122 119 115 110 107 104 101 99 95 93 91 89 88 85 82 79 76 73 71 68 65 62 59 58 55 51 46 40 35 28 23 18 15 11 9 9 9 11 11 12 13 12 12 14 12 10 10 9 8 5 3 359 353 348 345 342 338 335 331 327 324 322 318 315 313 310 308 309 310 311 310 310 310 311 310 310 309 307 305 300 294 290 286 281
125 124 121 117 113 110 107 103 101 98 95 94 91 89 87 84 81 76 72 70 67 66 63 61 59 57 52 46 39 34 27 21 17 12 9 8 8 8 10 10 11 12 12 14 15 12 11 9 7 8 6 1 356 351 347 344 340 337 334 330 326 324 321 318 315 314 312 310 309 310 311 313 312 310 311 312 311 310 307 305 301 295 292 291 288
128 126 123 120 116 113 110 107 105 102 100 98 94 91 88 85 81 75 71 69 67 66 65 63 61 59 55 47 40 33 25 19 17 15 12 8 5 8 10 11 11 13 13 14 15 13 10 8 7 7 4 358 354 349 344 341 338 334 332 328 326 324 321 319 318 316 314 311 310 310 310 311 311 309 310 311 309 307 307 308 307 306 306 303 298
131 129 126 122 119 116 113 111 109 106 104 101 97 94 89 85 81 76 71 68 65 65 65 65 64 62 56 49 41 33 25 19 18 20 18 9 2 7 13 12 11 14 16 14 14 13 9 7 7 4 359 355 351 345 342 343 338 332 330 328 325 324 322 320 319 317 315 312 310 310 309 309 310 309 309 311 310 307 308 309 306 304 304 300 295
133 131 128 124 122 119 117 114 113 111 108 103 99 94 88 84 80 76 72 69 66 65 65 65 65 63 58 50 41 33 26 22 24 28 24 16 7 6 12 12 11 14 15 12 13 12 8 6 4 358 353 351 350 347 346 346 340 332 329 327 325 323 321 319 318 317 316 313 311 311 309 308 308 308 309 308 306 304 304 304 300 298 298 295 291
135 134 130 128 126 123 120 119 116 113 108 103 99 94 88 83 78 75 73 69 66 65 65 65 66 63 58 50 42 34 26 24 34 40 32 25 16 4 5 11 13 15 13 11 11 10 7 5 360 353 351 352 351 350 347 342 337 332 329 327 324 319 314 314 317 318 315 313 311 310 308 305 304 305 304 302 301 300 300 299 297 297 298 295 291
137 136 133 131 129 125 122 120 116 113 109 104 100 95 89 84 78 74 71 68 66 66 65 67 67 66 62 52 44 36 27 27 39 45 40 38 28 12 6 9 11 14 13 9 8 8 6 2 355 351 353 353 351 350 346 340 337 334 333 331 328 322 315 313 315 316 314 310 308 307 304 301 301 301 300 300 299 298 297 297 295 293 293 291 289
138 137 134 131 128 124 123 122 119 117 113 108 103 97 91 87 81 77 73 69 68 66 65 67 68 70 66 55 47 37 29 29 39 41 41 43 35 23 14 11 10 11 9 5 4 6 3 357 354 353 354 353 353 353 348 341 339 337 336 336 334 329 324 318 315 313 311 309 306 304 301 299 299 298 298 299 299 297 296 293 290 288 286 283 282
139 136 133 131 128 126 125 122 119 117 114 111 109 103 98 93 86 82 78 73 71 68 66 66 65 68 69 60 51 40 31 30 33 36 36 37 37 30 18 13 12 9 5 3 2 3 3 360 357 354 354 354 355 355 349 342 340 339 339 338 334 330 326 323 319 316 312 309 305 302 300 299 298 297 296 297 298 296 293 290 287 284 281 277 276
139 136 133 132 130 128 126 124 123 122 121 119 114 107 104 100 94 88 84 79 75 72 67 64 62 63 67 65 56 42 32 29 29 31 32 33 36 31 17 10 10 7 5 3 2 6 9 6 358 353 353 355 355 354 350 345 341 339 339 339 335 332 329 325 323 320 316 312 307 303 302 300 298 296 296 296 294 291 289 287 285 282 279 278 277
139 137 135 133 133 133 131 130 130 129 126 120 114 109 106 103 98 93 89 84 79 75 70 65 61 61 62 67 60 43 30 28 29 29 28 31 34 28 15 7 6 4 4 1 360 6 10 5 356 352 353 353 353 355 353 349 343 340 341 340 336 334 330 325 323 320 315 312 308 303 302 300 297 296 295 295 291 287 286 283 281 279 278 278 277
140 139 139 139 139 138 136 134 132 129 126 121 116 114 111 107 103 100 97 91 85 80 75 68 62 59 57 63 64 46 30 27 29 29 27 28 30 24 14 7 4 2 4 360 355 1 6 0 355 354 353 350 351 355 356 352 345 342 342 341 339 337 333 329 326 320 315 312 310 307 305 303 301 299 297 296 292 288 286 281 276 274 273 273 272
145 146 145 144 142 141 138 136 135 132 129 123 120 121 118 114 110 104 100 97 91 84 82 76 68 61 56 55 62 52 34 26 26 28 29 31 29 21 13 10 3 357 2 359 352 358 3 357 356 357 353 349 350 355 356 351 346 343 342 342 341 339 337 335 331 325 320 318 315 313 310 308 306 304 301 299 296 292 285 275 269 266 262 262 265
150 149 147 144 143 142 141 140 138 135 131 126 125 125 123 119 114 108 102 99 94 89 85 84 78 71 62 55 57 59 40 28 25 28 30 33 34 22 12 12 4 352 359 0 353 358 360 353 353 356 352 350 351 353 352 349 344 341 340 343 344 342 340 338 331 327 325 324 321 319 318 317 314 311 308 304 301 297 285 272 268 262 254 251 256
152 149 146 145 145 144 144 143 141 137 134 131 131 131 128 124 120 116 109 100 97 92 86 85 84 81 75 65 58 59 48 30 25 27 29 32 33 25 11 11 5 349 352 358 355 356 357 351 348 348 349 352 352 349 348 346 341 337 337 342 343 341 339 336 330 329 329 327 326 323 322 323 320 317 316 311 306 299 285 274 269 259 249 249 252
150 147 146 146 146 146 145 144 142 140 137 136 136 133 127 123 117 110 102 94 93 92 88 88 87 84 87 81 65 58 53 33 21 21 27 29 28 24 13 9 4 348 343 351 354 352 352 351 346 342 346 350 348 345 343 342 339 335 336 339 336 334 337 335 333 335 333 327 326 325 323 325 323 321 321 318 311 302 289 278 269 259 251 247 246
148 147 147 147 148 147 146 144 141 141 141 140 139 134 128 126 121 111 100 91 89 89 89 93 92 88 88 89 80 53 36 28 16 13 19 25 24 20 12 5 1 348 338 345 351 348 347 348 344 341 343 345 344 342 340 339 340 337 334 334 330 330 336 338 338 338 334 327 327 326 325 327 325 323 325 322 318 311 300 288 275 264 255 247 242
148 148 148 149 148 147 145 145 143 143 144 144 140 136 132 130 126 118 111 104 97 91 86 83 79 85 83 66 68 14 344 10 14 6 8 18 19 14 7 1 359 351 339 340 346 344 342 343 339 338 341 340 339 340 340 340 342 338 333 335 335 332 334 339 341 340 335 331 329 327 328 330 326 325 327 325 323 320 312 300 285 271 261 250 244
149 150 150 149 148 147 146 145 145 147 149 149 145 142 139 136 131 130 130 127 120 106 94 86 66 61 63 45 45 36 354 1 8 359 360 9 11 7 0 356 356 352 338 331 338 339 338 337 333 334 337 337 337 338 338 339 340 336 336 341 343 339 338 341 342 339 335 333 331 329 330 330 327 327 327 326 327 326 319 308 294 279 265 252 244
150 150 151 149 148 149 148 149 152 154 155 155 152 149 149 147 139 137 143 134 122 106 81 76 60 46 46 34 28 32 29 19 5 356 356 1 2 359 354 350 350 348 337 327 332 336 332 329 330 333 336 335 334 336 336 336 337 337 341 346 346 343 343 344 342 338 335 335 334 331 331 330 330 330 330 332 335 334 331 327 317 295 271 251 240
152 151 152 152 152 152 152 154 157 158 160 161 156 154 161 166 156 147 146 129 107 100 75 62 54 40 36 30 22 23 26 24 11 359 356 356 354 353 353 349 345 343 338 331 332 334 332 329 330 336 339 336 333 335 337 337 338 339 344 348 346 345 346 345 342 339 336 336 335 333 332 333 334 334 337 342 345 347 348 350 349 340 307 246 228
153 154 155 154 155 156 156 158 160 161 166 168 162 162 169 170 165 160 154 138 107 93 76 52 48 46 34 24 19 20 22 21 13 3 357 355 351 350 351 347 343 343 344 341 338 338 339 337 335 337 340 339 337 337 338 339 340 341 345 349 349 348 347 346 342 340 337 336 336 335 334 334 335 337 344 350 352 354 358 359 357 1 6 222 199
156 157 157 157 159 161 161 161 162 165 171 171 166 168 169 163 162 162 149 143 141 118 89 55 39 39 34 22 14 16 23 22 13 2 355 351 348 347 346 345 344 346 348 346 342 338 335 335 337 340 343 342 342 342 342 342 343 344 345 348 349 349 349 347 343 341 339 338 337 336 336 338 339 342 348 354 356 359 3 5 4 8 19 44 79
160 161 160 160 163 165 164 164 165 166 172 174 167 164 169 171 165 142 100 76 78 85 77 67 47 27 26 25 12 7 21 22 8 356 349 346 345 343 342 342 342 344 346 346 343 337 331 334 342 346 347 346 346 345 346 345 344 345 345 346 347 349 350 347 344 342 341 340 339 339 341 342 344 346 350 355 358 2 7 11 12 14 20 33 44
163 163 163 165 168 167 166 170 172 169 170 174 165 144 139 136 124 119 110 93 87 80 70 68 52 17 20 33 20 10 18 11 356 351 350 348 345 342 338 341 345 346 347 347 340 333 333 343 349 347 348 349 347 346 346 345 344 345 346 345 346 350 351 348 345 344 343 343 343 343 345 346 347 349 353 357 0 4 9 13 15 18 22 27 29
166 166 167 170 171 170 169 175 180 173 169 175 167 145 141 132 114 115 120 133 137 125 103 89 74 49 47 45 26 14 16 2 349 353 357 354 350 345 341 347 352 350 349 345 336 330 336 347 351 350 350 351 349 346 346 345 344 345 346 345 346 350 352 349 347 346 345 346 347 347 348 349 350 352 356 360 2 6 11 14 17 20 22 24 23
169 170 172 172 173 174 172 175 181 177 172 174 168 156 160 164 153 148 140 124 130 133 112 100 105 113 99 64 18 354 357 358 355 356 359 356 352 350 350 353 353 353 351 340 328 327 340 346 347 350 350 349 349 347 346 346 345 346 347 346 345 348 351 349 348 348 347 348 350 351 351 353 354 357 1 3 4 7 12 16 19 21 22 24 24
172 173 175 171 171 179 179 174 179 180 175 175 173 165 163 162 163 171 168 150 154 165 156 148 159 132 91 82 78 324 330 350 357 355 356 355 353 354 355 348 341 345 347 335 322 328 343 346 346 349 349 349 350 349 347 348 348 347 348 346 344 347 350 349 348 350 350 350 352 353 353 356 358 0 4 7 7 9 13 16 19 20 22 27 28
174 174 176 170 171 184 186 175 178 183 177 177 181 178 175 174 170 171 172 175 185 192 189 193 199 217 279 296 319 298 316 343 353 353 355 355 355 355 350 340 336 340 338 330 329 342 348 346 348 350 349 349 350 349 348 350 350 349 349 347 345 348 349 348 349 351 352 354 355 354 355 358 1 3 7 11 11 12 15 17 19 22 25 28 30
175 175 177 171 173 186 188 178 180 184 179 179 184 186 189 187 176 173 178 184 191 199 204 205 200 194 246 293 304 304 312 328 338 347 355 357 358 353 337 332 341 350 339 326 335 347 348 347 351 352 350 351 351 349 350 351 351 352 351 348 347 350 349 348 349 351 352 356 358 355 357 2 3 4 9 14 14 14 17 19 21 24 26 29 31
177 176 178 176 177 185 189 183 182 183 181 181 185 189 194 191 181 183 190 190 193 199 201 200 199 200 214 280 295 306 316 321 325 338 349 356 1 351 331 328 346 358 351 344 349 350 347 349 352 351 350 352 351 350 351 352 352 353 353 349 349 350 349 348 350 350 351 356 358 356 358 5 7 6 10 16 18 19 19 21 23 26 28 30 33
181 178 178 182 183 184 187 187 184 184 184 184 185 189 191 186 189 202 208 204 208 213 202 193 194 199 216 252 267 284 308 316 320 325 333 348 357 342 324 324 345 353 350 352 354 349 347 349 351 351 351 352 351 351 352 353 353 354 354 351 351 351 350 349 349 349 350 356 359 358 359 5 9 9 11 15 20 22 22 22 24 26 28 31 35
185 180 178 185 188 185 186 188 185 183 185 185 185 190 190 189 195 207 211 209 214 231 225 197 188 191 208 228 239 253 293 314 314 307 305 320 334 321 308 315 339 345 344 350 350 346 347 350 350 350 350 351 351 350 351 352 353 353 353 352 352 352 350 348 350 350 351 355 0 1 1 4 9 12 13 15 20 24 24 24 24 26 29 31 34
189 183 178 183 189 186 185 186 180 176 182 189 191 192 192 195 201 209 217 217 210 219 243 235 207 204 212 216 218 231 269 286 278 273 275 283 296 301 300 312 331 336 339 343 343 343 346 348 348 348 349 349 350 350 350 352 352 351 352 352 351 351 350 350 352 352 352 355 359 1 3 5 8 12 15 17 20 24 27 27 26 25 28 30 31
188 183 175 179 186 188 185 183 178 176 185 194 198 195 196 201 205 209 218 224 216 217 232 238 235 238 232 207 197 210 236 253 256 259 265 274 287 298 304 311 321 328 333 336 338 341 343 344 346 347 346 347 347 347 348 350 350 350 351 351 351 351 352 352 353 352 352 354 357 359 2 4 6 10 15 19 21 24 28 30 29 28 28 29 30
186 178 170 175 185 191 187 183 180 182 189 196 200 200 201 206 211 215 220 225 225 226 231 234 239 247 242 204 192 213 249 272 275 275 275 278 286 293 296 302 311 318 322 327 332 336 339 341 343 344 344 344 345 344 344 347 348 348 349 351 352 352 352 353 353 352 351 352 355 358 0 2 5 9 13 18 21 24 28 31 31 32 32 32 32
184 173 168 175 186 192 189 188 187 186 191 197 202 206 207 207 212 221 227 229 231 232 234 239 246 243 220 201 208 240 269 279 279 276 274 275 278 281 285 293 300 304 311 320 325 328 333 335 337 339 340 340 340 341 341 343 345 347 348 351 353 352 352 353 353 352 351 351 353 355 358 1 5 8 11 15 20 24 27 30 32 34 35 35 35
184 173 168 177 190 195 193 194 194 191 193 199 205 211 213 211 214 222 228 232 237 239 237 241 246 233 211 214 233 254 262 264 267 270 272 273 273 273 277 284 287 290 299 309 314 317 323 328 329 331 333 334 335 338 338 339 342 345 347 350 352 352 352 353 352 351 352 352 352 353 357 360 4 8 9 13 18 23 26 28 31 34 37 37 38
187 180 174 180 191 195 196 199 199 197 200 204 206 213 219 219 221 225 228 230 235 239 239 243 246 232 210 212 230 249 253 254 258 259 258 262 266 270 275 279 280 281 288 297 303 306 312 318 320 323 326 328 330 333 334 335 338 342 344 348 352 353 353 353 352 352 352 351 350 353 357 359 3 7 8 10 14 19 23 26 29 33 37 38 40
186 184 179 181 188 194 198 202 202 203 205 208 210 215 221 224 228 231 231 231 232 234 235 239 246 241 214 199 209 233 248 250 251 250 252 258 263 267 270 272 274 276 280 284 291 296 299 305 310 312 316 321 323 326 328 330 333 337 341 345 350 353 354 353 352 351 350 348 348 352 357 358 1 5 6 6 10 15 19 23 26 30 34 38 41
186 186 182 181 187 193 198 203 205 206 207 209 212 216 219 224 229 233 235 235 234 233 232 234 239 242 231 212 210 225 238 242 244 247 252 257 260 262 265 266 267 270 273 274 278 283 286 290 297 301 304 309 313 318 322 324 327 333 337 341 350 356 355 352 350 350 349 349 349 351 355 357 360 3 4 4 6 10 12 17 22 27 31 37 42
187 189 186 185 188 192 197 203 206 208 209 210 213 216 219 222 226 230 234 237 237 236 236 236 235 237 240 238 236 239 244 248 251 253 254 256 257 258 261 263 263 265 267 269 272 275 275 277 283 288 291 296 302 309 314 316 319 326 330 336 349 356 352 350 351 351 351 351 350 350 352 355 357 360 2 3 3 3 3 6 14 24 28 31 38
188 190 188 189 192 195 199 203 206 210 214 216 217 220 223 224 226 229 231 234 236 238 240 241 241 240 240 241 243 245 247 250 252 254 255 257 257 257 258 260 261 262 263 264 267 268 269 271 274 277 280 286 291 296 302 307 312 318 322 327 337 342 343 347 350 350 351 354 353 348 349 353 354 356 359 1 1 1 360 358 2 13 24 26 28
191 194 194 196 198 200 203 206 208 212 218 221 222 225 228 230 233 234 234 233 233 234 237 241 244 246 246 246 246 246 248 249 251 254 257 259 259 258 257 255 253 254 257 260 263 263 264 266 268 269 273 278 281 285 291 296 300 307 312 313 312 320 331 342 346 345 349 355 355 348 347 350 351 351 354 358 358 358 359 355 352 357 13 24 21
198 198 200 203 206 208 210 211 213 216 220 224 225 227 229 231 234 238 239 240 238 237 237 239 241 243 245 247 248 248 249 250 251 253 256 259 262 264 263 258 253 249 250 253 257 259 260 262 262 263 266 269 271 276 282 285 288 296 299 296 299 311 324 334 338 338 344 352 353 347 344 346 347 347 350 355 356 356 357 356 349 346 357 17 17
209 207 206 207 210 214 217 218 221 222 223 224 227 229 230 232 235 237 239 241 243 243 242 242 242 243 245 246 247 249 250 251 252 254 257 262 265 266 264 262 258 252 248 249 252 255 257 258 259 259 261 262 264 267 272 274 279 285 283 280 290 306 318 325 328 331 337 343 348 346 339 338 343 345 344 348 352 352 352 354 349 342 346 4 13
213 214 215 214 215 218 220 222 225 227 227 228 230 233 233 234 235 236 237 238 241 243 244 245 245 246 247 248 249 250 251 252 253 256 261 266 269 269 268 267 266 261 253 249 249 251 252 254 254 255 257 257 258 260 263 265 270 274 273 274 286 302 311 314 318 324 327 331 337 340 332 327 334 340 340 342 347 346 345 348 346 338 340 353 0